Time,TemperatureF,DewpointF,PressureIn,WindDirection,WindDirectionDegrees,WindSpeedMPH,WindSpeedGustMPH,Humidity,HourlyPrecipIn,Conditions,Clouds,dailyrainin,SoftwareType,DateUTC
2013-08-24 00:01:00,45.9,41.7,30.20,NNW,338,0.0,1.8,85,0.00,,,0.00,WUHU216HW,2013-08-24 04:01:00,
2013-08-24 00:06:00,45.5,41.6,30.20,ENE,68,1.1,1.8,86,0.00,,,0.00,WUHU216HW,2013-08-24 04:06:00,
2013-08-24 00:11:00,45.4,41.1,30.20,NW,315,1.6,1.8,85,0.00,,,0.00,WUHU216HW,2013-08-24 04:11:00,
2013-08-24 00:16:00,45.4,41.1,30.20,NNW,338,0.0,1.6,85,0.00,,,0.00,WUHU216HW,2013-08-24 04:16:00,
2013-08-24 00:21:00,45.0,41.0,30.20,ENE,68,1.1,1.3,86,0.00,,,0.00,WUHU216HW,2013-08-24 04:21:00,
2013-08-24 00:26:00,45.0,41.4,30.20,NNW,338,1.1,2.0,87,0.00,,,0.00,WUHU216HW,2013-08-24 04:26:00,
2013-08-24 00:31:00,45.2,41.2,30.20,NNW,338,0.0,2.0,86,0.00,,,0.00,WUHU216HW,2013-08-24 04:31:00,
2013-08-24 00:36:00,45.0,41.0,30.20,NNW,338,0.9,1.1,86,0.00,,,0.00,WUHU216HW,2013-08-24 04:36:00,
2013-08-24 00:41:00,44.8,40.9,30.20,NNW,338,0.2,1.1,86,0.00,,,0.00,WUHU216HW,2013-08-24 04:41:00,
2013-08-24 00:46:00,44.6,40.7,30.21,NNW,338,1.1,1.1,86,0.00,,,0.00,WUHU216HW,2013-08-24 04:46:00,
2013-08-24 00:51:00,44.5,40.5,30.21,NNW,338,0.4,1.1,86,0.00,,,0.00,WUHU216HW,2013-08-24 04:51:00,
2013-08-24 00:56:00,44.3,40.3,30.21,NNW,338,0.0,1.1,86,0.00,,,0.00,WUHU216HW,2013-08-24 04:56:00,
2013-08-24 01:01:00,44.3,40.3,30.21,NNW,338,0.0,0.4,86,0.00,,,0.00,WUHU216HW,2013-08-24 05:01:00,
2013-08-24 01:06:00,44.1,40.5,30.21,NNW,338,0.0,0.0,87,0.00,,,0.00,WUHU216HW,2013-08-24 05:06:00,
2013-08-24 01:11:00,43.7,40.2,30.21,North,0,1.1,1.3,87,0.00,,,0.00,WUHU216HW,2013-08-24 05:11:00,
2013-08-24 01:16:00,43.6,40.0,30.21,North,0,0.2,1.3,87,0.00,,,0.00,WUHU216HW,2013-08-24 05:16:00,
2013-08-24 01:21:00,43.6,40.0,30.21,NW,315,0.4,1.3,87,0.00,,,0.00,WUHU216HW,2013-08-24 05:21:00,
2013-08-24 01:26:00,43.7,40.4,30.22,ENE,68,1.3,1.6,88,0.00,,,0.00,WUHU216HW,2013-08-24 05:26:00,
2013-08-24 01:31:00,43.6,40.2,30.22,NE,45,0.2,1.6,88,0.00,,,0.00,WUHU216HW,2013-08-24 05:31:00,
2013-08-24 01:36:00,43.7,40.4,30.22,NNW,338,0.4,1.3,88,0.00,,,0.00,WUHU216HW,2013-08-24 05:36:00,
2013-08-24 01:41:00,43.9,40.6,30.21,NNW,338,0.0,0.7,88,0.00,,,0.00,WUHU216HW,2013-08-24 05:41:00,
2013-08-24 01:46:00,43.9,40.6,30.21,NNW,338,0.4,0.9,88,0.00,,,0.00,WUHU216HW,2013-08-24 05:46:00,
2013-08-24 01:51:00,43.9,40.6,30.21,NNW,338,0.0,0.9,88,0.00,,,0.00,WUHU216HW,2013-08-24 05:51:00,
2013-08-24 01:56:00,43.6,40.2,30.21,NNW,338,0.0,0.4,88,0.00,,,0.00,WUHU216HW,2013-08-24 05:56:00,
2013-08-24 02:01:00,43.6,40.2,30.22,North,0,0.0,0.0,88,0.00,,,0.00,WUHU216HW,2013-08-24 06:01:00,
2013-08-24 02:06:00,43.4,40.1,30.22,North,0,0.0,0.0,88,0.00,,,0.00,WUHU216HW,2013-08-24 06:06:00,
2013-08-24 02:11:00,43.4,40.1,30.22,North,0,0.4,0.4,88,0.00,,,0.00,WUHU216HW,2013-08-24 06:11:00,
2013-08-24 02:16:00,43.4,40.1,30.22,NW,315,0.9,0.9,88,0.00,,,0.00,WUHU216HW,2013-08-24 06:16:00,
2013-08-24 02:21:00,43.6,40.6,30.22,NNW,338,0.2,0.9,89,0.00,,,0.00,WUHU216HW,2013-08-24 06:21:00,
2013-08-24 02:26:00,43.6,40.2,30.22,NNW,338,0.9,0.9,88,0.00,,,0.00,WUHU216HW,2013-08-24 06:26:00,
2013-08-24 02:31:00,43.9,40.6,30.22,NW,315,1.1,1.1,88,0.00,,,0.00,WUHU216HW,2013-08-24 06:31:00,
2013-08-24 02:36:00,44.1,41.1,30.22,North,0,0.0,1.1,89,0.00,,,0.00,WUHU216HW,2013-08-24 06:36:00,
2013-08-24 02:41:00,44.3,41.0,30.22,North,0,0.0,1.1,88,0.00,,,0.00,WUHU216HW,2013-08-24 06:41:00,
2013-08-24 02:46:00,44.6,41.7,30.22,North,0,0.0,0.0,89,0.00,,,0.00,WUHU216HW,2013-08-24 06:46:00,
2013-08-24 02:51:00,44.6,41.9,30.22,North,0,0.0,0.0,90,0.00,,,0.00,WUHU216HW,2013-08-24 06:51:00,
2013-08-24 02:56:00,44.6,41.7,30.22,NW,315,1.1,1.3,89,0.00,,,0.00,WUHU216HW,2013-08-24 06:56:00,
2013-08-24 03:01:00,44.8,42.1,30.23,NW,315,1.6,1.6,90,0.00,,,0.00,WUHU216HW,2013-08-24 07:01:00,
2013-08-24 03:06:00,44.8,42.1,30.23,NW,315,0.7,1.8,90,0.00,,,0.00,WUHU216HW,2013-08-24 07:06:00,
2013-08-24 03:11:00,45.2,42.5,30.23,North,0,0.4,1.8,90,0.00,,,0.00,WUHU216HW,2013-08-24 07:11:00,
2013-08-24 03:16:00,45.2,42.5,30.23,NNW,338,0.7,1.1,90,0.00,,,0.00,WUHU216HW,2013-08-24 07:16:00,
2013-08-24 03:21:00,45.5,42.8,30.23,North,0,0.7,1.1,90,0.00,,,0.00,WUHU216HW,2013-08-24 07:21:00,
2013-08-24 03:26:00,45.4,42.7,30.23,NNW,338,1.3,1.3,90,0.00,,,0.00,WUHU216HW,2013-08-24 07:26:00,
2013-08-24 03:31:00,45.5,42.8,30.23,NNW,338,0.7,1.3,90,0.00,,,0.00,WUHU216HW,2013-08-24 07:31:00,
2013-08-24 03:36:00,45.7,43.3,30.23,NNW,338,0.9,1.3,91,0.00,,,0.00,WUHU216HW,2013-08-24 07:36:00,
2013-08-24 03:41:00,45.7,43.0,30.24,North,0,0.0,1.1,90,0.00,,,0.00,WUHU216HW,2013-08-24 07:41:00,
2013-08-24 03:46:00,45.7,43.0,30.24,NW,315,0.2,1.1,90,0.00,,,0.00,WUHU216HW,2013-08-24 07:46:00,
2013-08-24 03:51:00,45.7,43.0,30.24,NNW,338,0.4,1.1,90,0.00,,,0.00,WUHU216HW,2013-08-24 07:51:00,
2013-08-24 03:56:00,45.7,43.0,30.24,North,0,0.0,1.1,90,0.00,,,0.00,WUHU216HW,2013-08-24 07:56:00,
2013-08-24 04:01:00,45.7,43.0,30.24,NNW,338,0.4,1.1,90,0.00,,,0.00,WUHU216HW,2013-08-24 08:01:00,
2013-08-24 04:06:00,45.5,42.8,30.24,North,0,0.0,0.9,90,0.00,,,0.00,WUHU216HW,2013-08-24 08:06:00,
2013-08-24 04:11:00,45.5,42.8,30.25,North,0,1.1,1.1,90,0.00,,,0.00,WUHU216HW,2013-08-24 08:11:00,
2013-08-24 04:16:00,45.5,42.8,30.25,NNE,23,0.7,1.8,90,0.00,,,0.00,WUHU216HW,2013-08-24 08:16:00,
2013-08-24 04:21:00,45.2,42.5,30.25,North,0,0.4,1.8,90,0.00,,,0.00,WUHU216HW,2013-08-24 08:21:00,
2013-08-24 04:26:00,45.0,42.3,30.25,North,0,0.0,0.7,90,0.00,,,0.00,WUHU216HW,2013-08-24 08:26:00,
2013-08-24 04:31:00,45.0,42.3,30.25,NNW,338,0.4,0.7,90,0.00,,,0.00,WUHU216HW,2013-08-24 08:31:00,
2013-08-24 04:36:00,45.2,42.5,30.25,North,0,0.4,1.1,90,0.00,,,0.00,WUHU216HW,2013-08-24 08:36:00,
2013-08-24 04:41:00,45.4,42.7,30.26,NNE,23,1.1,1.1,90,0.00,,,0.00,WUHU216HW,2013-08-24 08:41:00,
2013-08-24 04:46:00,45.2,42.5,30.26,North,0,0.7,2.5,90,0.00,,,0.00,WUHU216HW,2013-08-24 08:46:00,
2013-08-24 04:51:00,45.4,42.9,30.26,NE,45,0.7,2.5,91,0.00,,,0.00,WUHU216HW,2013-08-24 08:51:00,
2013-08-24 04:56:00,45.0,42.6,30.26,North,0,0.4,1.8,91,0.00,,,0.00,WUHU216HW,2013-08-24 08:56:00,
2013-08-24 05:01:00,45.0,42.6,30.26,North,0,1.3,1.6,91,0.00,,,0.00,WUHU216HW,2013-08-24 09:01:00,
2013-08-24 05:06:00,45.2,42.5,30.26,ENE,68,1.1,1.6,90,0.00,,,0.00,WUHU216HW,2013-08-24 09:06:00,
2013-08-24 05:11:00,45.2,42.8,30.27,North,0,1.6,2.0,91,0.00,,,0.00,WUHU216HW,2013-08-24 09:11:00,
2013-08-24 05:16:00,45.4,42.7,30.26,NNE,23,0.9,2.0,90,0.00,,,0.00,WUHU216HW,2013-08-24 09:16:00,
2013-08-24 05:21:00,45.2,42.5,30.27,North,0,0.0,1.6,90,0.00,,,0.00,WUHU216HW,2013-08-24 09:21:00,
2013-08-24 05:26:00,45.0,42.3,30.27,North,0,0.0,0.9,90,0.00,,,0.00,WUHU216HW,2013-08-24 09:26:00,
2013-08-24 05:31:00,44.8,42.1,30.27,East,90,0.0,0.7,90,0.00,,,0.00,WUHU216HW,2013-08-24 09:31:00,
2013-08-24 05:36:00,44.6,41.9,30.28,East,90,0.9,1.1,90,0.00,,,0.00,WUHU216HW,2013-08-24 09:36:00,
2013-08-24 05:41:00,44.5,41.8,30.28,ESE,113,1.1,1.3,90,0.00,,,0.00,WUHU216HW,2013-08-24 09:41:00,
2013-08-24 05:46:00,44.5,41.8,30.28,ENE,68,0.0,1.8,90,0.00,,,0.00,WUHU216HW,2013-08-24 09:46:00,
2013-08-24 05:50:00,44.1,41.4,30.28,NNE,23,0.4,1.8,90,0.00,,,0.00,WUHU216HW,2013-08-24 09:50:00,
2013-08-24 05:55:00,44.3,41.6,30.29,NNW,338,0.4,0.7,90,0.00,,,0.00,WUHU216HW,2013-08-24 09:55:00,
2013-08-24 06:00:00,44.6,42.2,30.29,North,0,0.4,1.1,91,0.00,,,0.00,WUHU216HW,2013-08-24 10:00:00,
2013-08-24 06:05:00,44.5,41.8,30.29,NW,315,0.9,1.3,90,0.00,,,0.00,WUHU216HW,2013-08-24 10:05:00,
2013-08-24 06:10:00,44.3,41.6,30.29,NW,315,0.4,1.3,90,0.00,,,0.00,WUHU216HW,2013-08-24 10:10:00,
2013-08-24 06:15:00,44.3,41.6,30.29,NW,315,0.7,1.6,90,0.00,,,0.00,WUHU216HW,2013-08-24 10:15:00,
2013-08-24 06:20:00,44.3,41.6,30.29,WNW,293,1.8,1.8,90,0.00,,,0.00,WUHU216HW,2013-08-24 10:20:00,
2013-08-24 06:25:00,44.3,41.6,30.30,NNW,338,1.1,1.8,90,0.00,,,0.00,WUHU216HW,2013-08-24 10:25:00,
2013-08-24 06:30:00,44.3,41.6,30.30,West,270,1.8,2.2,90,0.00,,,0.00,WUHU216HW,2013-08-24 10:30:00,
2013-08-24 06:35:00,44.3,41.6,30.30,West,270,0.4,2.5,90,0.00,,,0.00,WUHU216HW,2013-08-24 10:35:00,
2013-08-24 06:40:00,44.3,41.6,30.30,North,0,0.4,2.5,90,0.00,,,0.00,WUHU216HW,2013-08-24 10:40:00,
2013-08-24 06:46:00,44.6,42.2,30.31,East,90,0.4,1.1,91,0.00,,,0.00,WUHU216HW,2013-08-24 10:46:00,
2013-08-24 06:51:00,44.6,42.2,30.31,North,0,1.1,1.3,91,0.00,,,0.00,WUHU216HW,2013-08-24 10:51:00,
2013-08-24 06:55:00,45.0,42.6,30.31,North,0,1.1,1.3,91,0.00,,,0.00,WUHU216HW,2013-08-24 10:55:00,
2013-08-24 07:00:00,45.0,42.6,30.31,NE,45,0.9,1.8,91,0.00,,,0.00,WUHU216HW,2013-08-24 11:00:00,
2013-08-24 07:05:00,45.2,42.8,30.31,NNW,338,1.3,1.8,91,0.00,,,0.00,WUHU216HW,2013-08-24 11:05:00,
2013-08-24 07:11:00,45.0,42.6,30.31,NNE,23,1.1,2.5,91,0.00,,,0.00,WUHU216HW,2013-08-24 11:11:00,
2013-08-24 07:16:00,45.0,42.6,30.31,NE,45,0.0,2.5,91,0.00,,,0.00,WUHU216HW,2013-08-24 11:16:00,
2013-08-24 07:21:00,45.2,42.8,30.31,WNW,293,0.7,1.8,91,0.00,,,0.00,WUHU216HW,2013-08-24 11:21:00,
2013-08-24 07:26:00,45.0,42.6,30.32,WNW,293,1.1,1.6,91,0.00,,,0.00,WUHU216HW,2013-08-24 11:26:00,
2013-08-24 07:31:00,45.0,42.6,30.32,North,0,0.4,1.8,91,0.00,,,0.00,WUHU216HW,2013-08-24 11:31:00,
2013-08-24 07:36:00,45.2,42.8,30.32,NNW,338,0.9,2.0,91,0.00,,,0.00,WUHU216HW,2013-08-24 11:36:00,
2013-08-24 07:41:00,45.4,42.9,30.32,NNW,338,1.1,2.0,91,0.00,,,0.00,WUHU216HW,2013-08-24 11:41:00,
2013-08-24 07:45:00,45.4,42.9,30.32,NNW,338,1.3,1.6,91,0.00,,,0.00,WUHU216HW,2013-08-24 11:45:00,
2013-08-24 07:50:00,45.5,43.1,30.33,NE,45,1.1,2.2,91,0.00,,,0.00,WUHU216HW,2013-08-24 11:50:00,
2013-08-24 07:55:00,45.7,43.3,30.33,NNE,23,0.2,2.2,91,0.00,,,0.00,WUHU216HW,2013-08-24 11:55:00,
2013-08-24 08:00:00,45.7,43.3,30.33,WNW,293,0.4,2.0,91,0.00,,,0.00,WUHU216HW,2013-08-24 12:00:00,
2013-08-24 08:05:00,46.1,43.7,30.33,WNW,293,1.3,1.6,91,0.00,,,0.00,WUHU216HW,2013-08-24 12:05:00,
2013-08-24 08:10:00,46.4,44.0,30.33,NW,315,0.0,1.6,91,0.00,,,0.00,WUHU216HW,2013-08-24 12:10:00,
2013-08-24 08:15:00,47.0,44.6,30.33,WNW,293,0.4,1.6,91,0.00,,,0.00,WUHU216HW,2013-08-24 12:15:00,
2013-08-24 08:20:00,47.2,44.7,30.33,East,90,1.6,2.7,91,0.00,,,0.00,WUHU216HW,2013-08-24 12:20:00,
2013-08-24 08:25:00,47.3,44.9,30.33,ESE,113,0.9,2.7,91,0.00,,,0.00,WUHU216HW,2013-08-24 12:25:00,
2013-08-24 08:30:00,47.9,45.5,30.33,SE,135,0.7,1.8,91,0.00,,,0.00,WUHU216HW,2013-08-24 12:30:00,
2013-08-24 08:35:00,48.1,45.6,30.33,ENE,68,0.7,2.0,91,0.00,,,0.00,WUHU216HW,2013-08-24 12:35:00,
2013-08-24 08:40:00,48.6,45.9,30.33,NE,45,1.8,2.0,90,0.00,,,0.00,WUHU216HW,2013-08-24 12:40:00,
2013-08-24 08:45:00,48.6,45.5,30.33,ENE,68,2.7,2.7,89,0.00,,,0.00,WUHU216HW,2013-08-24 12:45:00,
2013-08-24 08:50:00,49.1,46.1,30.33,North,0,0.9,2.7,89,0.00,,,0.00,WUHU216HW,2013-08-24 12:50:00,
2013-08-24 08:55:00,49.5,46.4,30.34,North,0,1.8,2.5,89,0.00,,,0.00,WUHU216HW,2013-08-24 12:55:00,
2013-08-24 09:00:00,50.0,46.5,30.34,ESE,113,0.9,2.0,88,0.00,,,0.00,WUHU216HW,2013-08-24 13:00:00,
2013-08-24 09:05:00,50.0,46.5,30.33,NW,315,0.7,2.0,88,0.00,,,0.00,WUHU216HW,2013-08-24 13:05:00,
2013-08-24 09:10:00,50.0,46.5,30.34,NW,315,0.0,1.1,88,0.00,,,0.00,WUHU216HW,2013-08-24 13:10:00,
2013-08-24 09:15:00,50.8,47.3,30.34,SSE,158,0.7,1.6,88,0.00,,,0.00,WUHU216HW,2013-08-24 13:15:00,
2013-08-24 09:20:00,51.5,48.0,30.33,West,270,1.1,2.7,88,0.00,,,0.00,WUHU216HW,2013-08-24 13:20:00,
2013-08-24 09:25:00,52.4,48.9,30.33,WNW,293,0.7,2.7,88,0.00,,,0.00,WUHU216HW,2013-08-24 13:25:00,
2013-08-24 09:30:00,53.1,49.3,30.33,South,180,0.0,1.3,87,0.00,,,0.00,WUHU216HW,2013-08-24 13:30:00,
2013-08-24 09:35:00,54.0,49.6,30.33,SE,135,1.3,2.2,85,0.00,,,0.00,WUHU216HW,2013-08-24 13:35:00,
2013-08-24 09:40:00,55.4,50.9,30.33,ESE,113,0.9,2.2,85,0.00,,,0.00,WUHU216HW,2013-08-24 13:40:00,
2013-08-24 09:45:00,56.5,51.4,30.33,South,180,0.4,2.0,83,0.00,,,0.00,WUHU216HW,2013-08-24 13:45:00,
2013-08-24 09:50:00,56.9,51.8,30.33,SSE,158,2.5,2.5,83,0.00,,,0.00,WUHU216HW,2013-08-24 13:50:00,
2013-08-24 09:55:00,57.2,51.8,30.33,WNW,293,0.4,2.7,82,0.00,,,0.00,WUHU216HW,2013-08-24 13:55:00,
2013-08-24 10:00:00,57.2,51.8,30.33,West,270,1.8,2.7,82,0.00,,,0.00,WUHU216HW,2013-08-24 14:00:00,
2013-08-24 10:05:00,57.6,51.9,30.33,SSW,203,1.6,2.5,81,0.00,,,0.00,WUHU216HW,2013-08-24 14:05:00,
2013-08-24 10:10:00,58.1,52.0,30.33,ESE,113,0.7,2.5,80,0.00,,,0.00,WUHU216HW,2013-08-24 14:10:00,
2013-08-24 10:15:00,58.9,52.7,30.33,NNW,338,0.4,2.7,80,0.00,,,0.00,WUHU216HW,2013-08-24 14:15:00,
2013-08-24 10:20:00,59.6,53.1,30.33,West,270,0.9,2.7,79,0.00,,,0.00,WUHU216HW,2013-08-24 14:20:00,
2013-08-24 10:25:00,60.5,53.6,30.33,West,270,1.1,3.4,78,0.00,,,0.00,WUHU216HW,2013-08-24 14:25:00,
2013-08-24 10:30:00,61.0,53.5,30.33,SSE,158,1.3,3.4,76,0.00,,,0.00,WUHU216HW,2013-08-24 14:30:00,
2013-08-24 10:35:00,61.9,53.6,30.33,SSW,203,1.1,2.2,74,0.00,,,0.00,WUHU216HW,2013-08-24 14:35:00,
2013-08-24 10:40:00,62.8,54.0,30.33,SSW,203,0.7,3.4,73,0.00,,,0.00,WUHU216HW,2013-08-24 14:40:00,
2013-08-24 10:45:00,63.7,54.2,30.33,SSE,158,2.5,3.4,71,0.00,,,0.00,WUHU216HW,2013-08-24 14:45:00,
2013-08-24 10:50:00,64.4,54.5,30.33,SE,135,2.5,3.1,70,0.00,,,0.00,WUHU216HW,2013-08-24 14:50:00,
2013-08-24 10:55:00,65.5,54.6,30.33,East,90,1.8,3.1,68,0.00,,,0.00,WUHU216HW,2013-08-24 14:55:00,
2013-08-24 11:00:00,66.2,54.1,30.33,South,180,2.2,2.9,65,0.00,,,0.00,WUHU216HW,2013-08-24 15:00:00,
2013-08-24 11:05:00,66.8,54.6,30.32,SW,225,2.2,2.9,65,0.00,,,0.00,WUHU216HW,2013-08-24 15:05:00,
2013-08-24 11:10:00,67.5,54.0,30.33,ESE,113,2.5,3.8,62,0.00,,,0.00,WUHU216HW,2013-08-24 15:10:00,
2013-08-24 11:15:00,67.9,54.8,30.32,ESE,113,1.6,3.8,63,0.00,,,0.00,WUHU216HW,2013-08-24 15:15:00,
2013-08-24 11:20:00,67.9,53.5,30.32,North,0,0.9,3.4,60,0.00,,,0.00,WUHU216HW,2013-08-24 15:20:00,
2013-08-24 11:25:00,67.3,53.0,30.32,East,90,2.2,3.1,60,0.00,,,0.00,WUHU216HW,2013-08-24 15:25:00,
2013-08-24 11:30:00,68.4,54.0,30.32,SSE,158,2.0,3.6,60,0.00,,,0.00,WUHU216HW,2013-08-24 15:30:00,
2013-08-24 11:35:00,69.5,55.1,30.31,South,180,4.0,4.7,60,0.00,,,0.00,WUHU216HW,2013-08-24 15:35:00,
2013-08-24 11:40:00,70.2,53.7,30.31,SE,135,4.7,5.4,56,0.00,,,0.00,WUHU216HW,2013-08-24 15:40:00,
2013-08-24 11:45:00,69.7,51.2,30.31,SSW,203,1.8,5.4,52,0.00,,,0.00,WUHU216HW,2013-08-24 15:45:00,
2013-08-24 11:50:00,70.2,52.2,30.31,ESE,113,4.0,5.4,53,0.00,,,0.00,WUHU216HW,2013-08-24 15:50:00,
2013-08-24 11:55:00,69.8,51.4,30.31,East,90,3.4,5.4,52,0.00,,,0.00,WUHU216HW,2013-08-24 15:55:00,
2013-08-24 12:00:00,70.2,52.2,30.31,South,180,5.6,6.7,53,0.00,,,0.00,WUHU216HW,2013-08-24 16:00:00,
2013-08-24 12:05:00,70.6,52.6,30.31,SSW,203,3.8,6.7,53,0.00,,,0.00,WUHU216HW,2013-08-24 16:05:00,
2013-08-24 12:10:00,71.5,53.4,30.30,SW,225,3.4,6.9,53,0.00,,,0.00,WUHU216HW,2013-08-24 16:10:00,
2013-08-24 12:15:00,71.8,52.7,30.30,West,270,3.8,6.9,51,0.00,,,0.00,WUHU216HW,2013-08-24 16:15:00,
2013-08-24 12:20:00,72.0,52.4,30.30,West,270,4.5,4.7,50,0.00,,,0.00,WUHU216HW,2013-08-24 16:20:00,
2013-08-24 12:25:00,71.8,51.6,30.30,SSW,203,0.4,4.9,49,0.00,,,0.00,WUHU216HW,2013-08-24 16:25:00,
2013-08-24 12:30:00,72.2,51.9,30.30,WNW,293,0.4,4.9,49,0.00,,,0.00,WUHU216HW,2013-08-24 16:30:00,
2013-08-24 12:35:00,72.9,51.9,30.30,NNW,338,2.0,5.1,48,0.00,,,0.00,WUHU216HW,2013-08-24 16:35:00,
2013-08-24 12:40:00,73.1,48.6,30.29,South,180,2.5,5.8,42,0.00,,,0.00,WUHU216HW,2013-08-24 16:40:00,
2013-08-24 12:45:00,73.8,51.0,30.29,SW,225,2.9,5.8,45,0.00,,,0.00,WUHU216HW,2013-08-24 16:45:00,
2013-08-24 12:50:00,73.6,49.1,30.29,NNE,23,4.0,9.2,42,0.00,,,0.00,WUHU216HW,2013-08-24 16:50:00,
2013-08-24 12:55:00,73.3,49.3,30.30,West,270,1.1,9.2,43,0.00,,,0.00,WUHU216HW,2013-08-24 16:55:00,
2013-08-24 13:00:00,73.1,49.1,30.29,SSE,158,0.9,4.9,43,0.00,,,0.00,WUHU216HW,2013-08-24 17:00:00,
2013-08-24 13:05:00,73.8,51.0,30.29,WNW,293,1.3,4.9,45,0.00,,,0.00,WUHU216HW,2013-08-24 17:05:00,
2013-08-24 13:10:00,74.3,49.2,30.29,NNW,338,7.2,7.2,41,0.00,,,0.00,WUHU216HW,2013-08-24 17:10:00,
2013-08-24 13:15:00,73.8,49.9,30.29,WSW,248,2.2,7.6,43,0.00,,,0.00,WUHU216HW,2013-08-24 17:15:00,
2013-08-24 13:20:00,73.8,48.6,30.29,East,90,4.0,7.6,41,0.00,,,0.00,WUHU216HW,2013-08-24 17:20:00,
2013-08-24 13:25:00,73.8,49.2,30.29,South,180,1.3,4.0,42,0.00,,,0.00,WUHU216HW,2013-08-24 17:25:00,
2013-08-24 13:30:00,74.3,51.0,30.29,NW,315,1.8,3.8,44,0.00,,,0.00,WUHU216HW,2013-08-24 17:30:00,
2013-08-24 13:35:00,75.6,50.2,30.29,WNW,293,3.4,4.9,41,0.00,,,0.00,WUHU216HW,2013-08-24 17:35:00,
2013-08-24 13:40:00,75.2,48.6,30.29,NNW,338,2.5,4.9,39,0.00,,,0.00,WUHU216HW,2013-08-24 17:40:00,
2013-08-24 13:45:00,75.1,49.1,30.29,ENE,68,4.0,6.7,40,0.00,,,0.00,WUHU216HW,2013-08-24 17:45:00,
2013-08-24 13:50:00,75.1,49.1,30.29,West,270,4.0,6.7,40,0.00,,,0.00,WUHU216HW,2013-08-24 17:50:00,
2013-08-24 13:55:00,75.8,51.0,30.29,South,180,4.9,6.3,42,0.00,,,0.00,WUHU216HW,2013-08-24 17:55:00,
2013-08-24 14:00:00,76.9,51.4,30.29,South,180,2.7,7.6,41,0.00,,,0.00,WUHU216HW,2013-08-24 18:00:00,
2013-08-24 14:05:00,77.4,51.8,30.29,SSW,203,2.5,7.6,41,0.00,,,0.00,WUHU216HW,2013-08-24 18:05:00,
2013-08-24 14:10:00,77.4,51.8,30.29,WNW,293,1.1,3.8,41,0.00,,,0.00,WUHU216HW,2013-08-24 18:10:00,
2013-08-24 14:15:00,77.0,50.2,30.28,SSE,158,2.5,7.2,39,0.00,,,0.00,WUHU216HW,2013-08-24 18:15:00,
2013-08-24 14:20:00,76.3,49.5,30.28,SW,225,2.2,7.2,39,0.00,,,0.00,WUHU216HW,2013-08-24 18:20:00,
2013-08-24 14:25:00,76.0,50.6,30.28,ENE,68,6.5,7.6,41,0.00,,,0.00,WUHU216HW,2013-08-24 18:25:00,
2013-08-24 14:30:00,74.9,49.0,30.28,ESE,113,5.6,7.6,40,0.00,,,0.00,WUHU216HW,2013-08-24 18:30:00,
2013-08-24 14:35:00,74.7,50.0,30.28,SE,135,2.2,6.5,42,0.00,,,0.00,WUHU216HW,2013-08-24 18:35:00,
2013-08-24 14:40:00,75.6,50.9,30.28,SE,135,2.5,4.9,42,0.00,,,0.00,WUHU216HW,2013-08-24 18:40:00,
2013-08-24 14:45:00,76.1,51.9,30.28,NNW,338,1.3,4.7,43,0.00,,,0.00,WUHU216HW,2013-08-24 18:45:00,
2013-08-24 14:50:00,76.3,51.0,30.28,SSW,203,0.9,6.5,41,0.00,,,0.00,WUHU216HW,2013-08-24 18:50:00,
2013-08-24 14:55:00,76.5,51.7,30.28,SSE,158,2.5,6.5,42,0.00,,,0.00,WUHU216HW,2013-08-24 18:55:00,
2013-08-24 15:00:00,76.9,50.8,30.27,NE,45,3.6,4.0,40,0.00,,,0.00,WUHU216HW,2013-08-24 19:00:00,
2013-08-24 15:05:00,76.3,51.0,30.27,NW,315,2.2,5.4,41,0.00,,,0.00,WUHU216HW,2013-08-24 19:05:00,
2013-08-24 15:10:00,76.3,51.0,30.27,NE,45,2.0,5.8,41,0.00,,,0.00,WUHU216HW,2013-08-24 19:10:00,
2013-08-24 15:15:00,76.7,51.2,30.27,North,0,1.1,5.8,41,0.00,,,0.00,WUHU216HW,2013-08-24 19:15:00,
2013-08-24 15:20:00,77.0,50.9,30.27,ESE,113,2.5,4.7,40,0.00,,,0.00,WUHU216HW,2013-08-24 19:20:00,
2013-08-24 15:25:00,77.0,50.9,30.27,ENE,68,2.9,4.3,40,0.00,,,0.00,WUHU216HW,2013-08-24 19:25:00,
2013-08-24 15:30:00,76.7,49.9,30.27,NNE,23,1.6,4.7,39,0.00,,,0.00,WUHU216HW,2013-08-24 19:30:00,
2013-08-24 15:35:00,76.5,49.7,30.27,ENE,68,2.9,4.7,39,0.00,,,0.00,WUHU216HW,2013-08-24 19:35:00,
2013-08-24 15:40:00,76.3,49.5,30.27,North,0,5.4,5.4,39,0.00,,,0.00,WUHU216HW,2013-08-24 19:40:00,
2013-08-24 15:45:00,76.0,49.2,30.27,ENE,68,1.6,5.4,39,0.00,,,0.00,WUHU216HW,2013-08-24 19:45:00,
2013-08-24 15:50:00,76.0,50.0,30.27,NE,45,3.4,5.4,40,0.00,,,0.00,WUHU216HW,2013-08-24 19:50:00,
2013-08-24 15:55:00,76.3,48.8,30.27,West,270,2.2,4.0,38,0.00,,,0.00,WUHU216HW,2013-08-24 19:55:00,
2013-08-24 16:00:00,76.9,50.1,30.27,SW,225,3.6,4.3,39,0.00,,,0.00,WUHU216HW,2013-08-24 20:00:00,
2013-08-24 16:05:00,76.7,46.8,30.27,WNW,293,4.3,5.8,35,0.00,,,0.00,WUHU216HW,2013-08-24 20:05:00,
2013-08-24 16:10:00,76.3,48.8,30.27,West,270,3.1,5.8,38,0.00,,,0.00,WUHU216HW,2013-08-24 20:10:00,
2013-08-24 16:15:00,76.9,50.1,30.27,SE,135,1.8,4.7,39,0.00,,,0.00,WUHU216HW,2013-08-24 20:15:00,
2013-08-24 16:20:00,77.0,47.2,30.27,West,270,3.4,4.0,35,0.00,,,0.00,WUHU216HW,2013-08-24 20:20:00,
2013-08-24 16:25:00,76.7,49.9,30.27,NNW,338,0.7,4.7,39,0.00,,,0.00,WUHU216HW,2013-08-24 20:25:00,
2013-08-24 16:30:00,76.7,46.8,30.26,West,270,3.4,6.3,35,0.00,,,0.00,WUHU216HW,2013-08-24 20:30:00,
2013-08-24 16:35:00,76.3,48.1,30.26,NE,45,2.9,6.3,37,0.00,,,0.00,WUHU216HW,2013-08-24 20:35:00,
2013-08-24 16:40:00,76.3,49.5,30.26,NNE,23,4.0,4.0,39,0.00,,,0.00,WUHU216HW,2013-08-24 20:40:00,
2013-08-24 16:45:00,76.1,49.4,30.26,NE,45,2.5,5.1,39,0.00,,,0.00,WUHU216HW,2013-08-24 20:45:00,
2013-08-24 16:50:00,76.3,50.3,30.26,NW,315,1.8,5.1,40,0.00,,,0.00,WUHU216HW,2013-08-24 20:50:00,
2013-08-24 16:55:00,76.5,48.2,30.26,WNW,293,1.1,3.4,37,0.00,,,0.00,WUHU216HW,2013-08-24 20:55:00,
2013-08-24 17:00:00,76.7,49.2,30.26,NW,315,2.0,3.6,38,0.00,,,0.00,WUHU216HW,2013-08-24 21:00:00,
2013-08-24 17:05:00,76.3,48.1,30.26,North,0,4.0,5.1,37,0.00,,,0.00,WUHU216HW,2013-08-24 21:05:00,
2013-08-24 17:10:00,76.3,48.1,30.26,West,270,0.4,5.1,37,0.00,,,0.00,WUHU216HW,2013-08-24 21:10:00,
2013-08-24 17:15:00,76.3,47.3,30.26,WNW,293,1.1,4.5,36,0.00,,,0.00,WUHU216HW,2013-08-24 21:15:00,
2013-08-24 17:20:00,76.1,47.1,30.26,North,0,3.1,4.0,36,0.00,,,0.00,WUHU216HW,2013-08-24 21:20:00,
2013-08-24 17:25:00,76.0,46.2,30.26,WNW,293,4.5,6.3,35,0.00,,,0.00,WUHU216HW,2013-08-24 21:25:00,
2013-08-24 17:30:00,75.6,46.6,30.26,WNW,293,3.1,6.3,36,0.00,,,0.00,WUHU216HW,2013-08-24 21:30:00,
2013-08-24 17:35:00,75.6,46.6,30.26,WNW,293,3.1,4.9,36,0.00,,,0.00,WUHU216HW,2013-08-24 21:35:00,
2013-08-24 17:40:00,75.6,45.9,30.26,West,270,1.1,4.9,35,0.00,,,0.00,WUHU216HW,2013-08-24 21:40:00,
2013-08-24 17:45:00,75.4,47.3,30.26,NE,45,1.6,4.5,37,0.00,,,0.00,WUHU216HW,2013-08-24 21:45:00,
2013-08-24 17:50:00,75.2,47.1,30.26,WSW,248,0.2,4.0,37,0.00,,,0.00,WUHU216HW,2013-08-24 21:50:00,
2013-08-24 17:55:00,75.4,47.3,30.26,NNW,338,4.0,4.0,37,0.00,,,0.00,WUHU216HW,2013-08-24 21:55:00,
2013-08-24 18:00:00,75.2,47.8,30.27,NNW,338,2.2,4.0,38,0.00,,,0.00,WUHU216HW,2013-08-24 22:00:00,
2013-08-24 18:05:00,75.1,47.6,30.27,WNW,293,3.1,4.0,38,0.00,,,0.00,WUHU216HW,2013-08-24 22:05:00,
2013-08-24 18:10:00,74.7,47.4,30.27,NW,315,2.2,4.3,38,0.00,,,0.00,WUHU216HW,2013-08-24 22:10:00,
2013-08-24 18:15:00,74.5,47.9,30.27,NW,315,1.6,4.3,39,0.00,,,0.00,WUHU216HW,2013-08-24 22:15:00,
2013-08-24 18:20:00,74.3,47.8,30.27,North,0,0.2,3.4,39,0.00,,,0.00,WUHU216HW,2013-08-24 22:20:00,
2013-08-24 18:25:00,74.2,47.6,30.27,NNW,338,0.4,3.6,39,0.00,,,0.00,WUHU216HW,2013-08-24 22:25:00,
2013-08-24 18:30:00,73.8,47.3,30.27,NNW,338,0.4,3.6,39,0.00,,,0.00,WUHU216HW,2013-08-24 22:30:00,
2013-08-24 18:35:00,73.4,47.0,30.27,West,270,0.7,1.8,39,0.00,,,0.00,WUHU216HW,2013-08-24 22:35:00,
2013-08-24 18:40:00,73.1,47.3,30.27,NW,315,1.3,1.8,40,0.00,,,0.00,WUHU216HW,2013-08-24 22:40:00,
2013-08-24 18:45:00,72.7,47.6,30.27,NW,315,0.9,2.2,41,0.00,,,0.00,WUHU216HW,2013-08-24 22:45:00,
2013-08-24 18:50:00,72.2,47.8,30.27,NW,315,0.7,2.2,42,0.00,,,0.00,WUHU216HW,2013-08-24 22:50:00,
2013-08-24 18:55:00,72.0,48.8,30.27,South,180,0.2,2.2,44,0.00,,,0.00,WUHU216HW,2013-08-24 22:55:00,
2013-08-24 19:00:00,71.3,49.3,30.27,SSE,158,0.0,1.3,46,0.00,,,0.00,WUHU216HW,2013-08-24 23:00:00,
2013-08-24 19:05:00,70.6,49.9,30.28,South,180,0.4,0.7,48,0.00,,,0.00,WUHU216HW,2013-08-24 23:05:00,
2013-08-24 19:10:00,69.8,49.8,30.28,SSW,203,0.0,0.9,49,0.00,,,0.00,WUHU216HW,2013-08-24 23:10:00,
2013-08-24 19:15:00,69.1,49.8,30.28,SSE,158,0.0,0.9,50,0.00,,,0.00,WUHU216HW,2013-08-24 23:15:00,
2013-08-24 19:20:00,68.0,49.2,30.28,SSE,158,0.4,0.9,51,0.00,,,0.00,WUHU216HW,2013-08-24 23:20:00,
2013-08-24 19:25:00,67.3,49.2,30.28,SSE,158,0.0,1.1,52,0.00,,,0.00,WUHU216HW,2013-08-24 23:25:00,
2013-08-24 19:30:00,66.6,49.0,30.28,SSE,158,0.0,1.1,53,0.00,,,0.00,WUHU216HW,2013-08-24 23:30:00,
2013-08-24 19:35:00,65.5,49.3,30.28,ENE,68,1.1,1.1,56,0.00,,,0.00,WUHU216HW,2013-08-24 23:35:00,
2013-08-24 19:40:00,64.4,49.2,30.28,NE,45,1.1,1.3,58,0.00,,,0.00,WUHU216HW,2013-08-24 23:40:00,
2013-08-24 19:45:00,63.2,49.1,30.29,ENE,68,0.2,1.3,60,0.00,,,0.00,WUHU216HW,2013-08-24 23:45:00,
2013-08-24 19:50:00,62.5,48.9,30.29,NE,45,1.1,1.1,61,0.00,,,0.00,WUHU216HW,2013-08-24 23:50:00,
2013-08-24 19:55:00,61.6,48.4,30.29,NE,45,0.0,1.1,62,0.00,,,0.00,WUHU216HW,2013-08-24 23:55:00,
2013-08-24 20:00:00,61.0,48.8,30.29,East,90,0.2,1.1,64,0.00,,,0.00,WUHU216HW,2013-08-25 00:00:00,
2013-08-24 20:05:00,60.5,48.2,30.29,NNW,338,0.0,1.1,64,0.00,,,0.00,WUHU216HW,2013-08-25 00:05:00,
2013-08-24 20:10:00,60.1,48.3,30.30,NNW,338,0.7,1.3,65,0.00,,,0.00,WUHU216HW,2013-08-25 00:10:00,
2013-08-24 20:15:00,59.8,48.0,30.30,NNW,338,0.4,1.3,65,0.00,,,0.00,WUHU216HW,2013-08-25 00:15:00,
2013-08-24 20:20:00,59.0,47.7,30.30,North,0,0.0,1.3,66,0.00,,,0.00,WUHU216HW,2013-08-25 00:20:00,
2013-08-24 20:25:00,58.5,47.2,30.30,NW,315,0.2,1.3,66,0.00,,,0.00,WUHU216HW,2013-08-25 00:25:00,
2013-08-24 20:30:00,58.1,47.6,30.31,NNW,338,0.0,0.7,68,0.00,,,0.00,WUHU216HW,2013-08-25 00:30:00,
2013-08-24 20:35:00,57.8,47.7,30.31,North,0,0.0,0.2,69,0.00,,,0.00,WUHU216HW,2013-08-25 00:35:00,
2013-08-24 20:40:00,57.2,47.2,30.31,North,0,0.4,1.1,69,0.00,,,0.00,WUHU216HW,2013-08-25 00:40:00,
2013-08-24 20:45:00,56.7,46.6,30.31,North,0,0.0,1.1,69,0.00,,,0.00,WUHU216HW,2013-08-25 00:45:00,
2013-08-24 20:50:00,56.2,46.5,30.31,North,0,0.0,0.7,70,0.00,,,0.00,WUHU216HW,2013-08-25 00:50:00,
2013-08-24 20:55:00,55.8,47.3,30.31,North,0,0.4,0.4,73,0.00,,,0.00,WUHU216HW,2013-08-25 00:55:00,
2013-08-24 21:00:00,55.3,46.7,30.31,NNW,338,0.4,0.7,73,0.00,,,0.00,WUHU216HW,2013-08-25 01:00:00,
2013-08-24 21:05:00,54.9,46.7,30.31,NW,315,0.9,1.1,74,0.00,,,0.00,WUHU216HW,2013-08-25 01:05:00,
2013-08-24 21:10:00,54.7,46.6,30.31,NNW,338,0.0,1.1,74,0.00,,,0.00,WUHU216HW,2013-08-25 01:10:00,
2013-08-24 21:15:00,54.4,46.6,30.32,NNW,338,0.0,0.9,75,0.00,,,0.00,WUHU216HW,2013-08-25 01:15:00,
2013-08-24 21:20:00,53.8,46.1,30.32,North,0,0.4,1.1,75,0.00,,,0.00,WUHU216HW,2013-08-25 01:20:00,
2013-08-24 21:25:00,53.5,45.7,30.32,North,0,0.0,1.1,75,0.00,,,0.00,WUHU216HW,2013-08-25 01:25:00,
2013-08-24 21:30:00,53.3,45.9,30.32,North,0,0.2,0.7,76,0.00,,,0.00,WUHU216HW,2013-08-25 01:30:00,
2013-08-24 21:35:00,53.1,45.7,30.32,North,0,0.0,0.4,76,0.00,,,0.00,WUHU216HW,2013-08-25 01:35:00,
2013-08-24 21:40:00,52.9,45.9,30.32,North,0,0.0,0.2,77,0.00,,,0.00,WUHU216HW,2013-08-25 01:40:00,
2013-08-24 21:45:00,52.7,45.7,30.32,North,0,0.9,1.1,77,0.00,,,0.00,WUHU216HW,2013-08-25 01:45:00,
2013-08-24 21:50:00,52.6,45.9,30.33,North,0,0.9,1.1,78,0.00,,,0.00,WUHU216HW,2013-08-25 01:50:00,
2013-08-24 21:55:00,52.2,45.5,30.33,North,0,0.0,1.1,78,0.00,,,0.00,WUHU216HW,2013-08-25 01:55:00,
2013-08-24 22:00:00,52.0,45.4,30.33,North,0,0.0,0.9,78,0.00,,,0.00,WUHU216HW,2013-08-25 02:00:00,
2013-08-24 22:05:00,51.5,44.8,30.33,North,0,0.0,0.2,78,0.00,,,0.00,WUHU216HW,2013-08-25 02:05:00,
2013-08-24 22:10:00,51.3,44.6,30.33,NNW,338,0.4,0.7,78,0.00,,,0.00,WUHU216HW,2013-08-25 02:10:00,
2013-08-24 22:15:00,51.1,44.8,30.33,NNW,338,0.0,0.7,79,0.00,,,0.00,WUHU216HW,2013-08-25 02:15:00,
2013-08-24 22:20:00,50.9,44.6,30.34,North,0,0.4,1.1,79,0.00,,,0.00,WUHU216HW,2013-08-25 02:20:00,
2013-08-24 22:25:00,50.8,44.5,30.34,North,0,0.0,1.1,79,0.00,,,0.00,WUHU216HW,2013-08-25 02:25:00,
2013-08-24 22:30:00,50.4,44.5,30.34,North,0,0.4,0.4,80,0.00,,,0.00,WUHU216HW,2013-08-25 02:30:00,
2013-08-24 22:35:00,50.0,44.1,30.34,North,0,0.0,0.4,80,0.00,,,0.00,WUHU216HW,2013-08-25 02:35:00,
2013-08-24 22:40:00,49.9,43.9,30.34,North,0,0.7,0.7,80,0.00,,,0.00,WUHU216HW,2013-08-25 02:40:00,
2013-08-24 22:45:00,49.7,43.7,30.34,North,0,0.0,0.9,80,0.00,,,0.00,WUHU216HW,2013-08-25 02:45:00,
2013-08-24 22:50:00,49.5,43.8,30.34,NNW,338,0.4,1.1,81,0.00,,,0.00,WUHU216HW,2013-08-25 02:50:00,
2013-08-24 22:55:00,49.3,43.7,30.34,North,0,0.0,1.1,81,0.00,,,0.00,WUHU216HW,2013-08-25 02:55:00,
2013-08-24 23:00:00,49.1,43.5,30.34,NNW,338,0.0,0.7,81,0.00,,,0.00,WUHU216HW,2013-08-25 03:00:00,
2013-08-24 23:05:00,49.0,43.7,30.34,North,0,0.4,1.1,82,0.00,,,0.00,WUHU216HW,2013-08-25 03:05:00,
2013-08-24 23:10:00,48.8,43.5,30.34,North,0,0.4,1.1,82,0.00,,,0.00,WUHU216HW,2013-08-25 03:10:00,
2013-08-24 23:15:00,48.6,43.3,30.34,North,0,0.0,1.1,82,0.00,,,0.00,WUHU216HW,2013-08-25 03:15:00,
2013-08-24 23:20:00,48.6,43.7,30.33,North,0,0.7,1.1,83,0.00,,,0.00,WUHU216HW,2013-08-25 03:20:00,
2013-08-24 23:25:00,48.2,42.7,30.33,NNW,338,1.1,1.1,81,0.00,,,0.00,WUHU216HW,2013-08-25 03:25:00,
2013-08-24 23:30:00,48.4,43.5,30.33,NW,315,0.2,1.3,83,0.00,,,0.00,WUHU216HW,2013-08-25 03:30:00,
2013-08-24 23:35:00,48.1,42.5,30.33,NW,315,0.0,1.3,81,0.00,,,0.00,WUHU216HW,2013-08-25 03:35:00,
2013-08-24 23:40:00,47.7,42.5,30.34,NW,315,0.7,1.1,82,0.00,,,0.00,WUHU216HW,2013-08-25 03:40:00,
2013-08-24 23:45:00,47.3,42.5,30.34,NW,315,0.0,1.1,83,0.00,,,0.00,WUHU216HW,2013-08-25 03:45:00,
2013-08-24 23:50:00,47.3,42.5,30.34,NW,315,0.0,0.7,83,0.00,,,0.00,WUHU216HW,2013-08-25 03:50:00,
2013-08-24 23:55:00,47.0,42.1,30.33,North,0,0.9,1.1,83,0.00,,,0.00,WUHU216HW,2013-08-25 03:55:00,